Hourly Data Report for June 18, 2021

CARBERRY CS
MANITOBA
Current Station Operator: ECCC - MSC

49°54'20.900" N
99°21'26.800" W
383.50 m
5010547
71170
WZE

Download Data

Hourly Data (June 2021)
Hourly Data Report for June 18, 2021
TIME
LST
Temp Definition
°C
Dew Point Definition
°C
Rel Hum Definition
%
Precip. Amount Definition
mm

Wind Dir Definition
10's deg

Wind Spd Definition
km/h
Visibility Definition
km
Stn Press Definition
kPa
Hmdx Definition


Wind Chill Definition


Weather Definition


00:00 13.2 6.1 62 0.0 26 13   96.33     LegendNANA
01:00 12.2 6.6 69 0.0 26 12   96.34     LegendNANA
02:00 10.9 6.8 76 0.0 26 13   96.39     LegendNANA
03:00 10.9 7.3 78 0.0 27 11   96.39     LegendNANA
04:00 10.0 7.3 84 0.0 27 11   96.42     LegendNANA
05:00 9.3 6.8 84 0.0 26 13   96.44     LegendNANA
06:00 12.0 7.4 73 0.0 28 13   96.46     LegendNANA
07:00 14.3 8.5 68 0.0 28 17   96.50     LegendNANA
08:00 16.8 9.0 60 0.0 29 18   96.50     LegendNANA
09:00 18.2 8.7 54 0.0 30 23   96.50     LegendNANA
10:00 17.9 8.2 53 0.0 31 25   96.51     LegendNANA
11:00 17.8 7.8 52 0.0 30 21   96.53     LegendNANA
12:00 17.4 9.0 58 0.0 30 26   96.57     LegendNANA
13:00 15.3 11.6 79 0.0 1 16   96.64     LegendNANA
14:00 15.6 11.6 77 0.0 36 18   96.68     LegendNANA
15:00 17.4 10.7 65 0.0 1 21   96.69     LegendNANA
16:00 16.4 10.9 70 0.0 2 9   96.70     LegendNANA
17:00 18.2 10.5 61 0.0 36 13   96.69     LegendNANA
18:00 17.5 9.6 60 0.0 1 12   96.73     LegendNANA
19:00 16.2 10.2 68 0.0 1 9   96.74     LegendNANA
20:00 15.1 11.5 79 0.0 5 5   96.74     LegendNANA
21:00 13.9 10.7 81 0.0 6 5   96.74     LegendNANA
22:00 11.8 11.5 98 0.0   0   96.78     LegendNANA
23:00 11.6 11.6 100 0.0 17 3   96.76     LegendNANA

Notes on Data Quality.

Legend

  • E = Estimated
  • M = Missing
  • NA = Not Available*
  • [empty] = Indicates an unobserved value
Date modified: